This is the latest recevied weather packets stored in our database for station/object N1YZ. If no packets are shown the sender has not sent any weather packets the latest 10 day(s).
| Time | Temp. | Humidity | Pressure | Rain* | Wind** | Luminosity | Snow |
|---|---|---|---|---|---|---|---|
| 1777742225 | 19.44° C | 45% | 1035.6 hPa | 0 mm | - | 695 W/m² | - |
| 1777741922 | 18.89° C | 47% | 1035.4 hPa | 0 mm | - | 689 W/m² | - |
| 1777741619 | 18.33° C | 50% | 1035.8 hPa | 0 mm | - | 692 W/m² | - |
| 1777741316 | 18.33° C | 50% | 1035.6 hPa | 0 mm | - | 683 W/m² | - |
| 1777741012 | 18.33° C | 52% | 1035.4 hPa | 0 mm | - | 679 W/m² | - |
| 1777740710 | 18.33° C | 55% | 1035.6 hPa | 0 mm | - | 674 W/m² | - |
| 1777740405 | 18.33° C | 54% | 1035.4 hPa | 0 mm | - | 670 W/m² | - |
| 1777740103 | 17.78° C | 59% | 1035.6 hPa | 0 mm | - | 663 W/m² | - |
| 1777739798 | 17.22° C | 62% | 1035.9 hPa | 0 mm | - | 657 W/m² | - |
| 1777739495 | 16.67° C | 61% | 1035.6 hPa | 0 mm | - | 584 W/m² | - |
| 1777739192 | 16.67° C | 65% | 1035.7 hPa | 0 mm | - | 330 W/m² | - |
| 1777738890 | 16.67° C | 63% | 1035.7 hPa | 0 mm | - | 287 W/m² | - |
| 1777738587 | 16.11° C | 56% | 1035.8 hPa | 0 mm | - | 256 W/m² | - |
| 1777738284 | 16.11° C | 59% | 1035.9 hPa | 0 mm | - | 236 W/m² | - |
| 1777737981 | 16.11° C | 60% | 1035.6 hPa | 0 mm | - | 246 W/m² | - |
| 1777737680 | 16.11° C | 69% | 1035.6 hPa | 0 mm | - | 220 W/m² | - |
| 1777737378 | 15.56° C | 68% | 1035.5 hPa | 0 mm | - | 200 W/m² | - |
| 1777737075 | 15.56° C | 70% | 1035.3 hPa | 0 mm | - | 189 W/m² | - |
| 1777736770 | 16.11° C | 71% | 1035.6 hPa | 0 mm | - | 181 W/m² | - |
| 1777736143 | 16.11° C | 63% | 1035.4 hPa | 0 mm | - | 198 W/m² | - |
| 1777735840 | 16.11° C | 66% | 1035.6 hPa | 0 mm | - | 186 W/m² | - |
| 1777735537 | 16.11° C | 72% | 1035.5 hPa | 0 mm | - | 189 W/m² | - |
| 1777735234 | 15.56° C | 61% | 1035.4 hPa | 0 mm | - | 283 W/m² | - |
| 1777734931 | 15° C | 78% | 1035.4 hPa | 0 mm | - | 174 W/m² | - |
| 1777734629 | 14.44° C | 78% | 1035.3 hPa | 0 mm | - | 232 W/m² | - |
* Rain latest hour (hover to see other rain measurements)
** Current wind speed in m/s (hover to see current wind gust speed)